Location: Newcastle Observatory
(43.9158°N, 78.5831°W)
Time: 17:35:39
(UTC-04:00)

Amateur Radio Satellites - All Passes

Search period start: 26 April 2017 17:05
Search period end: 27 April 2017 17:05
Location: Newcastle Observatory, 43.9158°N, 78.5831°W

Satellite Date Start Highest point End Downlink Frequencies (MHz)
Time Altitude Azimuth
MOZHAYETS 4 26 Apr 17:06:23 17:10:58 67° 286° (WNW) 17:15:34
BEESAT 26 Apr 17:11:16 17:15:33 33° 293° (WNW) 17:19:48 436.000
ITAMSAT 1 26 Apr 17:12:36 17:15:33 15° 270° (W) 17:18:30 435.822/435.867
KKS-1 26 Apr 17:20:35 17:24:31 30° 96° (E) 17:28:26 437.445
HO-68 26 Apr 17:29:13 17:31:20 11° 45° (NE) 17:33:26 435.675
XW-2D 26 Apr 17:32:27 17:34:54 17° 66° (ENE) 17:37:20 145.860 - 145.880
XW-2B 26 Apr 17:39:06 17:41:47 19° 67° (ENE) 17:44:29 145.730 - 145.750
KAITUO 1B 26 Apr 17:49:06 17:51:49 20° 67° (ENE) 17:54:32 145.475/437.950
LilacSat-2 26 Apr 17:49:18 17:52:27 26° 69° (ENE) 17:55:38 437.200
XW-2C 26 Apr 17:50:29 17:53:37 25° 69° (ENE) 17:56:44 145.795 - 145.815
ITUPSAT 1 26 Apr 17:52:54 17:55:41 16° 300° (WNW) 17:58:29 437.325
STARS 26 Apr 17:52:57 17:56:47 29° 96° (E) 18:00:35 437.465
CUBESAT XI-V 26 Apr 17:56:39 18:01:24 74° 102° (ESE) 18:06:06 437.345
AO-7 26 Apr 17:59:41 18:04:02 15° 273° (W) 18:08:24 .
XW-2F 26 Apr 18:15:34 18:19:09 48° 73° (ENE) 18:22:46 145.980 - 146.000
CUTE-I 26 Apr 18:16:02 18:21:14 55° 71° (ENE) 18:26:27 437.470
NUDT-PHONESAT 26 Apr 18:27:34 18:31:08 55° 74° (ENE) 18:34:45 437.300
RS-15 26 Apr 18:29:42 18:40:45 43° 252° (WSW) 18:51:20 29.354- 29.394
CUTE 1.7 + AOD 2 26 Apr 18:30:36 18:32:12 12° 61° (ENE) 18:33:47 437.475
DOVE 4 26 Apr 18:35:33 18:40:49 64° 259° (W) 18:46:01 437.250
XW-2A 26 Apr 18:42:07 18:43:25 12° 64° (ENE) 18:44:42 145.665 - 145.685
SEEDS 26 Apr 18:50:34 18:52:27 13° 61° (ENE) 18:54:18 437.485
KKS-1 26 Apr 18:57:14 19:00:59 27° 294° (WNW) 19:04:43 437.445
XW-2D 26 Apr 19:05:20 19:08:48 36° 262° (W) 19:12:19 145.860 - 145.880
HO-68 26 Apr 19:10:35 19:17:27 52° 66° (ENE) 19:24:20 435.675
O/OREOS (USA 219) 26 Apr 19:10:44 19:13:01 13° 48° (NE) 19:15:17 437.305
XW-2B 26 Apr 19:12:25 19:15:46 31° 263° (W) 19:19:10 145.730 - 145.750
UWE-3 26 Apr 19:21:46 19:23:27 12° 62° (ENE) 19:25:07 435.000/436.395/437.385
KAITUO 1B 26 Apr 19:22:23 19:25:38 29° 264° (W) 19:28:56 145.475/437.950
LilacSat-2 26 Apr 19:23:42 19:26:43 22° 266° (W) 19:29:44 437.200
XW-2C 26 Apr 19:24:46 19:27:46 23° 265° (W) 19:30:47 145.795 - 145.815
STARS 26 Apr 19:29:20 19:33:03 28° 293° (WNW) 19:36:44 437.465
CUBEBUG 2 26 Apr 19:32:36 19:36:09 25° 68° (ENE) 19:39:39 437.445
CUBESAT XI-V 26 Apr 19:35:41 19:38:10 14° 300° (WNW) 19:40:38 437.345
XW-2F 26 Apr 19:52:05 19:53:35 12° 270° (W) 19:55:06 145.980 - 146.000
AAUSAT CUBESAT 2 26 Apr 19:56:43 20:00:20 30° 69° (ENE) 20:03:59 437.432
CUTE-I 26 Apr 19:57:40 20:01:36 21° 268° (W) 20:05:34 437.470
CUTE 1.7 + AOD 2 26 Apr 20:03:14 20:07:26 73° 259° (W) 20:11:41 437.475
NUDT-PHONESAT 26 Apr 20:04:54 20:05:24 10° 271° (W) 20:05:54 437.300
STRAND 1 26 Apr 20:06:24 20:11:01 34° 97° (E) 20:15:37 437.568
NO-84 26 Apr 20:06:30 20:10:03 44° 136° (SE) 20:13:19 435.350 FM
XW-2A 26 Apr 20:12:36 20:15:48 42° 261° (W) 20:19:01 145.665 - 145.685
ZACube-1 26 Apr 20:15:23 20:18:49 25° 68° (ENE) 20:22:13 437.345
AO-85 26 Apr 20:20:23 20:22:28 14° 37° (NE) 20:24:35 145.980
AO-73 26 Apr 20:22:13 20:25:42 26° 68° (ENE) 20:29:11 145.935
SEEDS 26 Apr 20:23:25 20:27:34 66° 259° (W) 20:31:47 437.485
M-CUBED/EXP-1 PRIME 26 Apr 20:34:16 20:38:15 40° 103° (ESE) 20:41:54 437.505
Oscar 11 26 Apr 20:37:25 20:41:15 33° 70° (ENE) 20:45:09 .
DELFI C3 26 Apr 20:43:53 20:45:09 11° 61° (ENE) 20:46:25 145.870
O/OREOS (USA 219) 26 Apr 20:48:29 20:53:06 85° 245° (WSW) 20:57:39 437.305
UWE-3 26 Apr 20:55:08 20:59:22 70° 258° (WSW) 21:03:34 435.000/436.395/437.385
HO-68 26 Apr 20:59:08 21:05:24 33° 265° (W) 21:11:44 435.675
CUBEBUG 2 26 Apr 21:08:47 21:12:40 31° 264° (W) 21:16:28 437.445
OBJECT BX 26 Apr 21:23:33 21:26:18 21° 67° (ENE) 21:29:04 145.990 - 145.960
AAUSAT CUBESAT 2 26 Apr 21:32:24 21:35:47 24° 266° (W) 21:39:12 437.432
NO-84 26 Apr 21:44:37 21:47:41 28° 332° (NNW) 21:50:32 435.350 FM
STRAND 1 26 Apr 21:45:39 21:50:08 32° 294° (WNW) 21:54:37 437.568
PRISM 26 Apr 21:48:11 21:49:08 11° 89° (E) 21:50:03 437.425
ZACube-1 26 Apr 21:51:20 21:55:01 29° 264° (W) 21:58:39 437.345
AO-73 26 Apr 21:58:19 22:01:53 27° 265° (W) 22:05:26 145.935
AO-85 26 Apr 21:59:25 22:03:23 87° 243° (WSW) 22:07:32 145.980
M-CUBED/EXP-1 PRIME 26 Apr 22:09:14 22:12:22 20° 302° (WNW) 22:15:20 437.505
Oscar 11 26 Apr 22:14:00 22:17:26 23° 266° (W) 22:20:55 .
DELFI C3 26 Apr 22:15:24 22:19:21 69° 258° (WSW) 22:23:22 145.870
FO-29 26 Apr 22:15:51 22:18:19 13° 90° (E) 22:20:50 435.910
UNISAT 6 26 Apr 22:19:29 22:22:13 16° 92° (E) 22:24:55 437.425
LO-87 26 Apr 22:27:41 22:30:05 17° 66° (ENE) 22:32:29 145.935 - 145.965
BEESAT 2 26 Apr 22:30:02 22:33:02 19° 41° (NE) 22:36:00 435.950
BEESAT 3 26 Apr 22:30:39 22:34:29 39° 49° (NE) 22:38:15 437.485
OBJECT BX 26 Apr 22:56:44 22:59:51 27° 264° (W) 23:03:00 145.990 - 145.960
SPROUT 26 Apr 23:18:53 23:20:09 11° 60° (ENE) 23:21:23 437.525
PRISM 26 Apr 23:20:43 23:24:53 69° 285° (WNW) 23:28:58 437.425
NO-84 26 Apr 23:24:45 23:26:02 12° 352° (N) 23:27:17 435.350 FM
TIGRISAT 26 Apr 23:33:38 23:37:55 87° 283° (WNW) 23:42:15 435.000
ESTCUBE 1 26 Apr 23:36:39 23:41:05 62° 73° (ENE) 23:45:35 437.505/2401.250
VELOX 1 26 Apr 23:50:14 23:53:56 26° 66° (ENE) 23:57:38 145.980
UNISAT 6 26 Apr 23:55:04 23:59:11 47° 288° (WNW) 00:03:19 437.425
FO-29 26 Apr 23:58:47 00:04:00 76° 286° (WNW) 00:09:29 435.910
LO-87 26 Apr 23:59:57 00:03:17 34° 263° (W) 00:06:38 145.935 - 145.965
POLYITAN 1 27 Apr 00:06:44 00:09:30 17° 92° (E) 00:12:17 437.675
BEESAT 2 27 Apr 00:07:08 00:11:07 55° 240° (WSW) 00:15:03 435.950
BEESAT 3 27 Apr 00:08:45 00:11:50 21° 247° (WSW) 00:14:52 437.485
UKube-1 27 Apr 00:10:40 00:12:28 12° 60° (ENE) 00:14:15 .
AIST 2D 27 Apr 00:10:49 00:14:03 33° 97° (E) 00:17:17 435.315
QB50P2 27 Apr 00:12:58 00:16:13 21° 94° (E) 00:19:28 145.880/145.840
50 SAT 27 Apr 00:33:13 00:36:26 36° 71° (ENE) 00:39:40 437.505
NANOSAT C BR1 27 Apr 00:34:26 00:38:09 30° 96° (E) 00:41:52 145.865
DX 1 27 Apr 00:41:20 00:45:17 34° 69° (ENE) 00:49:16 434.975-435.025
SPROUT 27 Apr 00:51:08 00:55:24 81° 258° (WSW) 00:59:42 437.525
EO-79 27 Apr 01:02:00 01:06:13 69° 102° (ESE) 01:10:23 145.935-145.965
NO-84 27 Apr 01:02:55 01:04:40 14° 15° (NNE) 01:06:21 435.350 FM
DUCHIFAT 1 27 Apr 01:03:52 01:08:00 58° 100° (E) 01:12:07 145.980
ESTCUBE 1 27 Apr 01:15:59 01:18:18 14° 270° (W) 01:20:39 437.505/2401.250
VELOX 1 27 Apr 01:26:15 01:30:15 32° 263° (W) 01:34:17 145.980
POLYITAN 1 27 Apr 01:41:31 01:45:30 43° 289° (WNW) 01:49:29 437.675
UKube-1 27 Apr 01:43:34 01:47:53 75° 257° (WSW) 01:52:15 .
AIST 2D 27 Apr 01:44:47 01:47:01 16° 293° (WNW) 01:49:14 435.315
FO-29 27 Apr 01:47:12 01:48:17 11° 305° (NW) 01:49:23 435.910
ITUPSAT 1 27 Apr 01:47:17 01:49:10 12° 58° (ENE) 01:51:02 437.325
QB50P2 27 Apr 01:48:17 01:52:06 34° 290° (WNW) 01:55:54 145.880/145.840
BUGSAT 1 27 Apr 02:05:01 02:09:04 89° 285° (WNW) 02:13:03 437.445
50 SAT 27 Apr 02:07:36 02:09:31 14° 268° (W) 02:11:27 437.505
NANOSAT C BR1 27 Apr 02:10:20 02:13:45 24° 293° (WNW) 02:17:08 145.865
Oscar 19 27 Apr 02:15:38 02:20:29 38° 97° (E) 02:25:17 437.125/150
DX 1 27 Apr 02:18:00 02:21:31 24° 265° (W) 02:25:04 434.975-435.025
Gurwin Techsat 1B 27 Apr 02:19:13 02:23:32 25° 93° (E) 02:27:50 435.225
MOZHAYETS 4 27 Apr 02:34:25 02:37:09 16° 62° (ENE) 02:39:53
EO-79 27 Apr 02:39:40 02:41:25 12° 299° (WNW) 02:43:10 145.935-145.965
NO-84 27 Apr 02:39:49 02:42:44 58° 36° (NE) 02:45:32 435.350 FM
DUCHIFAT 1 27 Apr 02:41:01 02:43:12 14° 298° (WNW) 02:45:22 145.980
BEESAT 27 Apr 02:41:10 02:45:32 38° 69° (ENE) 02:49:56 436.000
PCSat 27 Apr 02:46:37 02:51:54 57° 115° (ESE) 02:57:13 145.827
ITUPSAT 1 27 Apr 03:21:30 03:26:16 88° 256° (WSW) 03:31:04 437.325
CUBESAT XI-V 27 Apr 03:28:07 03:28:59 10° 58° (ENE) 03:29:52 437.345
ITAMSAT 1 27 Apr 03:42:32 03:46:31 22° 93° (E) 03:50:28 435.822/435.867
Oscar 19 27 Apr 03:55:11 03:59:39 30° 295° (WNW) 04:04:06 437.125/150
Gurwin Techsat 1B 27 Apr 03:58:37 04:03:41 45° 291° (WNW) 04:08:42 435.225
AO-7 27 Apr 04:02:00 04:09:22 34° 96° (E) 04:16:42 .
MOZHAYETS 4 27 Apr 04:09:20 04:13:49 60° 259° (W) 04:18:21
YUBILEINY 27 Apr 04:10:51 04:18:36 38° 85° (E) 04:26:23 435.215
NO-84 27 Apr 04:18:49 04:19:48 11° 233° (SW) 04:20:48 435.350 FM
BEESAT 27 Apr 04:19:34 04:23:25 24° 266° (W) 04:27:18 436.000
KKS-1 27 Apr 04:19:42 04:23:44 34° 69° (ENE) 04:27:47 437.445
PCSat 27 Apr 04:31:05 04:35:38 27° 315° (NW) 04:40:13 145.827
STARS 27 Apr 04:50:39 04:54:33 32° 68° (ENE) 04:58:29 437.465
CUBESAT XI-V 27 Apr 05:00:55 05:05:33 82° 76° (ENE) 05:10:16 437.345
ITAMSAT 1 27 Apr 05:21:15 05:26:14 49° 290° (WNW) 05:31:12 435.822/435.867
M-CUBED/EXP-1 PRIME 27 Apr 05:50:47 05:51:04 10° 51° (NE) 05:51:21 437.505
AO-7 27 Apr 05:54:24 06:02:30 59° 296° (WNW) 06:10:35 .
KKS-1 27 Apr 05:56:41 06:00:21 24° 265° (W) 06:04:01 437.445
YUBILEINY 27 Apr 06:06:49 06:15:09 50° 286° (WNW) 06:23:35 435.215
STARS 27 Apr 06:27:13 06:30:54 26° 265° (W) 06:34:36 437.465
CUTE-I 27 Apr 06:32:31 06:36:15 19° 91° (E) 06:39:58 437.470
DOVE 4 27 Apr 06:33:55 06:38:02 31° 94° (E) 06:41:55 437.250
SO-50 27 Apr 06:35:02 06:39:16 37° 117° (ESE) 06:43:29 436.795
XW-2D 27 Apr 06:36:43 06:39:33 19° 93° (E) 06:42:21 145.860 - 145.880
RS-15 27 Apr 06:42:25 06:52:32 34° 104° (ESE) 07:02:51 29.354- 29.394
CUBESAT XI-V 27 Apr 06:42:26 06:43:31 11° 273° (W) 06:44:38 437.345
XW-2B 27 Apr 06:43:30 06:46:33 22° 94° (E) 06:49:35 145.730 - 145.750
KAITUO 1B 27 Apr 06:52:04 06:55:05 22° 95° (E) 06:58:07 145.475/437.950
LilacSat-2 27 Apr 06:54:39 06:58:08 32° 97° (E) 07:01:36 437.200
XW-2C 27 Apr 06:55:08 06:58:34 31° 97° (E) 07:01:59 145.795 - 145.815
M-CUBED/EXP-1 PRIME 27 Apr 07:20:01 07:24:37 67° 68° (ENE) 07:29:16 437.505
XW-2F 27 Apr 07:20:04 07:23:50 60° 101° (E) 07:27:36 145.980 - 146.000
STRAND 1 27 Apr 07:23:27 07:28:25 56° 71° (ENE) 07:33:25 437.568
NUDT-PHONESAT 27 Apr 07:30:12 07:33:54 65° 101° (E) 07:37:36 437.300
CUTE 1.7 + AOD 2 27 Apr 07:47:30 07:50:27 18° 92° (E) 07:53:22 437.475
AO-7 27 Apr 07:49:15 07:53:34 15° 317° (NW) 07:57:53 .
ISS 27 Apr 07:55:30 07:57:02 13° 132° (SE) 07:58:34 437.550
SEEDS 27 Apr 08:06:31 08:09:32 19° 92° (E) 08:12:32 437.485
XW-2D 27 Apr 08:10:24 08:13:47 31° 290° (WNW) 08:17:11 145.860 - 145.880
CUTE-I 27 Apr 08:11:28 08:16:41 58° 288° (WNW) 08:21:52 437.470
DOVE 4 27 Apr 08:11:43 08:15:38 27° 294° (WNW) 08:19:21 437.250
SO-50 27 Apr 08:15:40 08:19:46 31° 315° (NW) 08:23:51 436.795
XW-2B 27 Apr 08:17:27 08:20:43 27° 291° (WNW) 08:23:58 145.730 - 145.750
HO-68 27 Apr 08:24:00 08:30:56 48° 100° (E) 08:37:49 435.675
KAITUO 1B 27 Apr 08:25:53 08:29:04 26° 291° (WNW) 08:32:16 145.475/437.950
LilacSat-2 27 Apr 08:29:23 08:32:13 20° 293° (WNW) 08:35:03 437.200
XW-2C 27 Apr 08:29:44 08:32:34 20° 293° (WNW) 08:35:25 145.795 - 145.815
PRISM 27 Apr 08:39:21 08:40:16 11° 59° (ENE) 08:41:10 437.425
UWE-3 27 Apr 08:43:41 08:46:47 20° 93° (E) 08:49:55 435.000/436.395/437.385
RS-15 27 Apr 08:51:45 09:03:54 78° 307° (NW) 09:16:23 29.354- 29.394
XW-2F 27 Apr 08:56:09 08:57:30 12° 297° (WNW) 08:58:50 145.980 - 146.000
M-CUBED/EXP-1 PRIME 27 Apr 08:56:46 08:59:25 15° 265° (W) 09:02:04 437.505
CUBEBUG 2 27 Apr 08:57:19 09:01:20 45° 99° (E) 09:05:23 437.445
TIGRISAT 27 Apr 09:00:48 09:01:38 10° 60° (ENE) 09:02:29 435.000
STRAND 1 27 Apr 09:04:23 09:07:57 19° 268° (W) 09:11:31 437.568
Tancredo 1 27 Apr 09:04:38 09:07:43 72° 146° (SE) 09:10:49 437.200
XW-2A 27 Apr 09:05:31 09:08:46 49° 286° (WNW) 09:12:02 145.665 - 145.685
NUDT-PHONESAT 27 Apr 09:06:39 09:07:17 10° 298° (WNW) 09:07:56 437.300
AAUSAT CUBESAT 2 27 Apr 09:12:05 09:16:08 45° 99° (E) 09:20:09 437.432
UNISAT 6 27 Apr 09:19:50 09:22:47 18° 64° (ENE) 09:25:43 437.425
CUTE 1.7 + AOD 2 27 Apr 09:22:23 09:26:28 43° 288° (WNW) 09:30:33 437.475
ISS 27 Apr 09:29:49 09:33:05 87° 328° (NNW) 09:36:22 437.550
ZACube-1 27 Apr 09:37:12 09:41:15 43° 99° (E) 09:45:21 437.345
SEEDS 27 Apr 09:41:23 09:45:23 41° 289° (WNW) 09:49:23 437.485
AO-73 27 Apr 09:43:43 09:47:47 46° 99° (E) 09:51:55 145.935
PCSat 27 Apr 09:51:00 09:53:51 14° 34° (NE) 09:56:43 145.827
DELFI C3 27 Apr 09:52:31 09:54:32 13° 90° (E) 09:56:34 145.870
Oscar 11 27 Apr 09:58:33 10:02:51 56° 100° (E) 10:07:08 .
PRISM 27 Apr 10:10:44 10:14:53 82° 256° (WSW) 10:19:05 437.425
HO-68 27 Apr 10:12:01 10:18:29 37° 298° (WNW) 10:24:55 435.675
FO-29 27 Apr 10:12:02 10:18:04 53° 71° (ENE) 10:23:29 435.910
UWE-3 27 Apr 10:19:30 10:23:22 37° 289° (WNW) 10:27:17 435.000/436.395/437.385
OBJECT BX 27 Apr 10:24:01 10:26:54 21° 94° (E) 10:29:46 145.990 - 145.960
TIGRISAT 27 Apr 10:33:17 10:37:41 86° 257° (WSW) 10:42:00 435.000
CUBEBUG 2 27 Apr 10:34:54 10:37:38 17° 295° (WNW) 10:40:23 437.445
Tancredo 1 27 Apr 10:41:11 10:43:51 26° 344° (NNW) 10:46:32 437.200
AIST 2D 27 Apr 10:47:26 10:49:36 16° 66° (ENE) 10:51:47 435.315
AAUSAT CUBESAT 2 27 Apr 10:48:28 10:51:14 17° 296° (WNW) 10:54:01 437.432
UNISAT 6 27 Apr 10:54:58 10:59:11 46° 261° (W) 11:03:21 437.425
POLYITAN 1 27 Apr 11:00:57 11:03:36 16° 63° (ENE) 11:06:15 437.675
O/OREOS (USA 219) 27 Apr 11:01:45 11:06:21 87° 109° (ESE) 11:10:59 437.305
QB50P2 27 Apr 11:07:03 11:10:10 20° 65° (ENE) 11:13:17 145.880/145.840
ISS 27 Apr 11:07:09 11:09:55 25° 347° (NNW) 11:12:41 437.550
RS-15 27 Apr 11:07:54 11:18:46 34° 336° (NNW) 11:29:43 29.354- 29.394
ZACube-1 27 Apr 11:14:20 11:17:14 18° 295° (WNW) 11:20:10 437.345
AO-73 27 Apr 11:20:55 11:23:42 17° 295° (WNW) 11:26:30 145.935
DELFI C3 27 Apr 11:25:44 11:29:38 50° 287° (WNW) 11:33:29 145.870
LO-87 27 Apr 11:26:14 11:28:29 16° 92° (E) 11:30:43 145.935 - 145.965
NANOSAT C BR1 27 Apr 11:27:46 11:31:20 28° 68° (ENE) 11:34:55 145.865
ESTCUBE 1 27 Apr 11:29:46 11:31:27 12° 89° (E) 11:33:08 437.505/2401.250
PCSat 27 Apr 11:33:00 11:38:24 61° 56° (NE) 11:43:46 145.827
Oscar 11 27 Apr 11:35:58 11:38:32 16° 297° (WNW) 11:41:07 .
EO-79 27 Apr 11:55:19 11:59:28 60° 73° (ENE) 12:03:38 145.935-145.965
DUCHIFAT 1 27 Apr 11:56:37 12:00:40 50° 73° (ENE) 12:04:44 145.980
OBJECT BX 27 Apr 11:57:28 12:00:34 26° 291° (WNW) 12:03:38 145.990 - 145.960
FO-29 27 Apr 11:58:29 12:03:22 24° 266° (W) 12:07:54 435.910
AO-85 27 Apr 12:16:03 12:19:11 20° 114° (ESE) 12:22:13 145.980
Tancredo 1 27 Apr 12:18:06 12:20:28 19° 5° (N) 12:22:50 437.200
AIST 2D 27 Apr 12:19:25 12:22:34 32° 263° (W) 12:25:44 435.315
POLYITAN 1 27 Apr 12:34:55 12:39:00 49° 260° (W) 12:43:06 437.675
SPROUT 27 Apr 12:36:37 12:39:08 15° 91° (E) 12:41:39 437.525
QB50P2 27 Apr 12:41:46 12:45:42 38° 262° (W) 12:49:40 145.880/145.840
O/OREOS (USA 219) 27 Apr 12:44:11 12:46:26 13° 312° (NW) 12:48:43 437.305
ISS 27 Apr 12:44:32 12:47:08 22° 7° (N) 12:49:46 437.550
BUGSAT 1 27 Apr 12:55:28 12:59:36 74° 76° (ENE) 13:03:42 437.445
LO-87 27 Apr 12:58:48 13:02:03 33° 289° (WNW) 13:05:15 145.935 - 145.965
NANOSAT C BR1 27 Apr 13:03:24 13:07:00 27° 265° (W) 13:10:35 145.865
ESTCUBE 1 27 Apr 13:04:12 13:08:45 73° 286° (WNW) 13:13:16 437.505/2401.250
VELOX 1 27 Apr 13:14:19 13:18:32 40° 99° (E) 13:22:40 145.980
AO-7 27 Apr 13:15:34 13:19:17 14° 41° (NE) 13:23:01 .
PCSat 27 Apr 13:17:22 13:21:19 21° 254° (WSW) 13:25:14 145.827
RS-15 27 Apr 13:25:57 13:36:15 29° 11° (N) 13:46:21 29.354- 29.394
SO-50 27 Apr 13:26:12 13:27:30 11° 29° (NNE) 13:28:47 436.795
50 SAT 27 Apr 13:28:03 13:31:11 30° 97° (E) 13:34:17 437.505
UKube-1 27 Apr 13:30:17 13:32:58 16° 92° (E) 13:35:39 .
Oscar 19 27 Apr 13:33:38 13:38:43 63° 72° (ENE) 13:43:52 437.125/150
EO-79 27 Apr 13:33:44 13:35:36 13° 270° (W) 13:37:29 145.935-145.965
DUCHIFAT 1 27 Apr 13:34:14 13:36:37 15° 269° (W) 13:39:01 145.980
Gurwin Techsat 1B 27 Apr 13:41:24 13:46:25 45° 69° (ENE) 13:51:29 435.225
Tancredo 1 27 Apr 13:53:57 13:56:56 42° 25° (NNE) 13:59:54 437.200
AO-85 27 Apr 13:55:17 13:59:20 43° 310° (NW) 14:03:12 145.980
BEESAT 3 27 Apr 13:58:42 14:02:24 41° 118° (ESE) 14:06:11 437.485
BEESAT 2 27 Apr 14:00:40 14:03:16 17° 111° (ESE) 14:05:53 435.950
DX 1 27 Apr 14:03:37 14:07:54 52° 100° (E) 14:12:07 434.975-435.025
SPROUT 27 Apr 14:11:13 14:15:19 49° 288° (WNW) 14:19:25 437.525
YUBILEINY 27 Apr 14:19:05 14:25:17 21° 60° (ENE) 14:31:29 435.215
ISS 27 Apr 14:20:55 14:24:08 55° 28° (NNE) 14:27:20 437.550
VELOX 1 27 Apr 14:51:22 14:54:42 21° 295° (WNW) 14:58:01 145.980
ITAMSAT 1 27 Apr 15:01:33 15:06:20 39° 68° (ENE) 15:11:09 435.822/435.867
50 SAT 27 Apr 15:01:33 15:03:53 17° 294° (WNW) 15:06:13 437.505
AO-7 27 Apr 15:02:16 15:10:13 53° 63° (ENE) 15:18:10 .
SO-50 27 Apr 15:04:39 15:09:03 49° 50° (NE) 15:13:25 436.795
UKube-1 27 Apr 15:05:06 15:09:17 49° 289° (WNW) 15:13:25 .
Oscar 19 27 Apr 15:15:11 15:18:29 17° 269° (W) 15:21:49 437.125/150
ITUPSAT 1 27 Apr 15:21:14 15:24:52 21° 93° (E) 15:28:27 437.325
Gurwin Techsat 1B 27 Apr 15:22:14 15:26:33 25° 266° (W) 15:30:54 435.225
Tancredo 1 27 Apr 15:30:02 15:32:44 27° 222° (SW) 15:35:25 437.200
BEESAT 2 27 Apr 15:36:48 15:40:39 48° 309° (NW) 15:44:35 435.950
BEESAT 3 27 Apr 15:36:57 15:40:09 23° 317° (NW) 15:43:24 437.485
RS-15 27 Apr 15:40:20 15:52:25 54° 43° (NE) 16:03:56 29.354- 29.394
DX 1 27 Apr 15:40:52 15:43:40 17° 298° (WNW) 15:46:27 434.975-435.025
ISS 27 Apr 15:57:50 16:00:24 21° 224° (SW) 16:02:58 437.550
MOZHAYETS 4 27 Apr 16:03:03 16:07:02 28° 95° (E) 16:10:59
YUBILEINY 27 Apr 16:14:35 16:23:25 88° 84° (E) 16:32:14 435.215
BEESAT 27 Apr 16:16:53 16:21:40 75° 102° (ESE) 16:26:26 436.000
ITAMSAT 1 27 Apr 16:41:30 16:45:53 28° 265° (W) 16:50:19 435.822/435.867
SO-50 27 Apr 16:45:49 16:49:11 21° 248° (WSW) 16:52:32 436.795
CUBESAT XI-V 27 Apr 16:56:53 17:00:13 19° 92° (E) 17:03:31 437.345
